Location: Home
(42.5358°N, 72.7383°W)
Time: 09:26:02
(UTC-05:00)

Courier 1B - Pass Details

Date: 04 December 2021
Orbit: 962 x 1209 km, 28.3° (Epoch: 21 January)

Event Time Altitude Azimuth Distance (km) Brightness Sun altitude
Rises 19:34:52 0° 254° (WSW) 3,929 11.6 -35.5°
Reaches altitude 10° 19:38:28 10° 239° (WSW) 2,922 10.6 -36.2°
Enters shadow 19:42:57 20° 200° (SSW) 2,195 9.4 -37.0°
Maximum altitude 19:43:27 21° 194° (SSW) 2,181 - -37.1°
Drops below altitude 10° 19:48:15 10° 149° (SSE) 2,793 - -38.0°
Sets 19:51:35 0° 133° (SE) 3,705 - -38.6°
